Location: Knowlton
(51.2333°N, 1.2667°E)
Time: 09:42:45
(UTC+00:00)

Cosmos 1076 Rocket - Pass Details

Date: 18 April 2021
Orbit: 589 x 612 km, 82.5° (Epoch: 05 May)

Event Time Altitude Azimuth Distance (km) Brightness Sun altitude
Rises 20:40:08 0° 347° (NNW) 2,887 7.9 -14.9°
Reaches altitude 10° 20:42:23 10° 345° (NNW) 1,974 7.0 -15.1°
Maximum altitude 20:46:43 67° 264° (W) 664 3.8 -15.6°
Enters shadow 20:50:07 16° 183° (S) 1,605 5.3 -16.0°
